Alpine, TX

12:54 PM CDT on October 17, 2017 (GMT -0500)
Alpine

Weather History for KE38 - December, 2012

Change the Weather History Date:

Friday, December 21, 2012

  Actual Average (KMRF) Record (KMRF)
Temperature  
Mean Temperature 44 °F -  
Max Temperature 59 °F 52 °F 73 °F (2010)
Min Temperature 30 °F 22 °F 15 °F (1996)
Degree Days  
Heating Degree Days 20    
Moisture  
Dew Point -3 °F    
Average Humidity 16    
Maximum Humidity 28    
Minimum Humidity 6    
Precipitation  
Precipitation 0.00 in - - ()
Sea Level Pressure  
Sea Level Pressure 30.37 in    
Wind  
Wind Speed 6 mph (South)    
Max Wind Speed 13 mph    
Max Gust Speed 18 mph    
Visibility 10 miles    
Events      
Averages and records for this station are not official NWS values.
T = Trace of Precipitation, MM = Missing Value Source: NWS Daily Summary

Daily Weather History Graph

Daily Weather History Graph

Search for Another Location

Airport or City:

Trip Planner

Search our weather history database for the weather conditions in past years. The results will help you decide how hot, cold, wet, or windy it might be!

Date:

Astronomy

Dec. 21, 2012 Rise Set
Actual Time 7:47 AM CST 5:58 PM CST
Civil Twilight 7:21 AM CST 6:25 PM CST
Nautical Twilight 6:51 AM CST 6:55 PM CST
Astronomical Twilight 6:21 AM CST 7:24 PM CST
Moon 1:31 PM CST (12/21) 1:53 AM CST (12/21)
Length of Visible Light 11h 04m
Length of Day
10h 11m
Waxing Gibbous, 65% of the Moon is Illuminated
Dec 21
Waxing Gibbous
Dec 28
Full
Jan 4
Last Quarter
Jan 11
New
Jan 18
First Quarter

Hourly Weather History & Observations

Time (CST) Temp. Windchill Dew Point Humidity Pressure Visibility Wind Dir Wind Speed Gust Speed Precip Events Conditions
12:15 AM 32.7 °F 27.3 °F 0.9 °F 26% 30.48 in 10.0 mi WSW 5.8 mph - N/A   Clear
12:35 AM 33.1 °F 26.1 °F 1.0 °F 26% 30.47 in 10.0 mi SW 8.1 mph - N/A   Clear
12:55 AM 34.5 °F 27.9 °F 0.9 °F 24% 30.47 in 10.0 mi SW 8.1 mph - N/A   Clear
1:15 AM 34.9 °F 27.1 °F 0.7 °F 24% 30.46 in 10.0 mi SSW 10.4 mph - N/A   Clear
1:35 AM 33.8 °F 27.0 °F 0.5 °F 24% 30.45 in 10.0 mi SSW 8.1 mph - N/A   Clear
1:55 AM 33.4 °F 25.9 °F -0.4 °F 24% 30.45 in 10.0 mi SSW 9.2 mph - N/A   Clear
2:15 AM 30.0 °F 22.4 °F -0.0 °F 28% 30.45 in 10.0 mi SSW 8.1 mph - N/A   Clear
2:35 AM 31.3 °F 25.6 °F 0.3 °F 27% 30.44 in 10.0 mi SSW 5.8 mph - N/A   Clear
2:55 AM 32.9 °F 26.7 °F -0.8 °F 24% 30.44 in 10.0 mi SSW 6.9 mph - N/A   Clear
3:15 AM 32.7 °F 25.7 °F -1.1 °F 24% 30.44 in 10.0 mi SSW 8.1 mph - N/A   Clear
3:35 AM 32.4 °F 26.0 °F -1.5 °F 24% 30.44 in 10.0 mi SSW 6.9 mph - N/A   Clear
3:55 AM 32.9 °F - -2.2 °F 22% 30.43 in 10.0 mi Calm Calm - N/A   Clear
4:15 AM 32.5 °F - -2.0 °F 23% 30.43 in 10.0 mi Calm Calm - N/A   Clear
4:35 AM 32.5 °F 29.3 °F -2.2 °F 23% 30.43 in 10.0 mi SW 3.5 mph - N/A   Clear
4:55 AM 34.5 °F - -2.4 °F 21% 30.42 in 10.0 mi Calm Calm - N/A   Clear
5:15 AM 33.6 °F 28.4 °F -2.4 °F 22% 30.41 in 10.0 mi WSW 5.8 mph - N/A   Clear
5:35 AM 33.6 °F 30.6 °F -1.8 °F 22% 30.42 in 10.0 mi South 3.5 mph - N/A   Clear
5:55 AM 30.7 °F 24.1 °F -1.1 °F 26% 30.42 in 10.0 mi SSW 6.9 mph - N/A   Clear
6:15 AM 33.1 °F 30.0 °F -0.0 °F 24% 30.42 in 10.0 mi SSE 3.5 mph - N/A   Clear
6:35 AM 35.6 °F 31.7 °F -0.2 °F 22% 30.42 in 10.0 mi SW 4.6 mph - N/A   Clear
6:55 AM 36.5 °F 32.7 °F 0.1 °F 22% 30.42 in 10.0 mi SW 4.6 mph - N/A   Clear
7:15 AM 32.2 °F - 0.3 °F 26% 30.42 in 10.0 mi Calm Calm - N/A   Clear
7:35 AM 31.5 °F - 0.5 °F 27% 30.41 in 10.0 mi Calm Calm - N/A   Clear
7:55 AM 32.5 °F 29.3 °F 1.2 °F 26% 30.42 in 10.0 mi South 3.5 mph - N/A   Clear
8:15 AM 33.4 °F 29.1 °F 1.9 °F 26% 30.41 in 10.0 mi South 4.6 mph - N/A   Clear
8:35 AM 35.2 °F 30.3 °F 2.7 °F 25% 30.42 in 10.0 mi South 5.8 mph - N/A   Clear
8:55 AM 38.8 °F 36.5 °F 3.2 °F 23% 30.43 in 10.0 mi SSW 3.5 mph - N/A   Clear
9:15 AM 44.1 °F 39.0 °F 2.1 °F 18% 30.43 in 10.0 mi South 9.2 mph - N/A   Scattered Clouds
9:35 AM 45.0 °F 42.6 °F 0.9 °F 16% 30.43 in 10.0 mi South 4.6 mph - N/A   Scattered Clouds
9:55 AM 45.9 °F - 0.1 °F 15% 30.43 in 10.0 mi Calm Calm - N/A   Clear
10:15 AM 46.4 °F 45.2 °F 0.7 °F 15% 30.43 in 10.0 mi ENE 3.5 mph - N/A   Clear
10:35 AM 46.6 °F - 2.7 °F 16% 30.43 in 10.0 mi Calm Calm - N/A   Scattered Clouds
10:55 AM 50.2 °F - -2.6 °F 11% 30.42 in 10.0 mi SSE 11.5 mph - N/A   Clear
11:15 AM 52.2 °F - -7.8 °F 8% 30.41 in 10.0 mi SSE 12.7 mph 18.4 mph N/A   Mostly Cloudy
11:35 AM 52.5 °F - -9.0 °F 8% 30.40 in 10.0 mi SSE 11.5 mph - N/A   Mostly Cloudy
11:55 AM 52.3 °F - -8.3 °F 8% 30.39 in 10.0 mi SSE 10.4 mph - N/A   Overcast
12:15 PM 51.3 °F - -8.5 °F 8% 30.38 in 10.0 mi South 11.5 mph - N/A   Overcast
12:35 PM 51.1 °F - -8.5 °F 8% 30.38 in 10.0 mi SSE 6.9 mph - N/A   Mostly Cloudy
12:55 PM 50.9 °F - -7.2 °F 9% 30.36 in 10.0 mi SSW 5.8 mph - N/A   Mostly Cloudy
1:15 PM 50.9 °F - -5.6 °F 10% 30.36 in 10.0 mi South 4.6 mph - N/A   Mostly Cloudy
1:35 PM 52.0 °F - -4.2 °F 10% 30.34 in 10.0 mi South 5.8 mph - N/A   Scattered Clouds
1:55 PM 53.8 °F - -3.3 °F 10% 30.32 in 10.0 mi WSW 3.5 mph - N/A   Clear
2:15 PM 55.8 °F - -4.5 °F 8% 30.31 in 10.0 mi SSE 6.9 mph - N/A   Clear
2:35 PM 58.8 °F - -6.9 °F 7% 30.30 in 10.0 mi South 11.5 mph - N/A   Scattered Clouds
2:55 PM 59.2 °F - -8.0 °F 6% 30.30 in 10.0 mi South 10.4 mph - N/A   Scattered Clouds
3:15 PM 59.0 °F - -6.9 °F 7% 30.30 in 10.0 mi South 9.2 mph - N/A   Scattered Clouds
3:35 PM 58.5 °F - -6.2 °F 7% 30.30 in 10.0 mi South 6.9 mph - N/A   Scattered Clouds
3:55 PM 59.0 °F - -6.2 °F 7% 30.29 in 10.0 mi SSE 11.5 mph - N/A   Clear
4:15 PM 57.9 °F - -6.7 °F 7% 30.28 in 10.0 mi South 6.9 mph - N/A   Clear
4:55 PM 56.5 °F - -5.6 °F 8% 30.28 in 10.0 mi SE 5.8 mph - N/A   Clear
5:15 PM 54.3 °F - -6.7 °F 8% 30.28 in 10.0 mi SE 5.8 mph - N/A   Clear
5:55 PM 51.8 °F - -6.3 °F 9% 30.28 in 7.0 mi SE 6.9 mph - N/A   Scattered Clouds
6:15 PM 50.9 °F - -6.9 °F 9% 30.28 in 10.0 mi SSE 4.6 mph - N/A   Scattered Clouds
6:35 PM 50.5 °F - -7.2 °F 9% 30.29 in 10.0 mi ESE 5.8 mph - N/A   Scattered Clouds
6:55 PM 48.4 °F - -5.8 °F 10% 30.30 in 10.0 mi Calm Calm - N/A   Scattered Clouds
7:15 PM 45.9 °F 41.7 °F -4.2 °F 12% 30.30 in 10.0 mi SSE 8.1 mph - N/A   Clear
7:35 PM 45.1 °F 41.4 °F -4.2 °F 13% 30.30 in 10.0 mi SSE 6.9 mph - N/A   Scattered Clouds
7:55 PM 45.0 °F 41.2 °F -3.3 °F 13% 30.30 in 10.0 mi South 6.9 mph - N/A   Clear
8:15 PM 44.6 °F 43.1 °F -2.9 °F 14% 30.30 in 10.0 mi SSW 3.5 mph - N/A   Clear
8:35 PM 44.4 °F - -3.1 °F 14% 30.30 in 10.0 mi Calm Calm - N/A   Clear
8:55 PM 44.4 °F 42.0 °F -2.7 °F 14% 30.30 in 10.0 mi South 4.6 mph - N/A   Clear
9:15 PM 42.1 °F 37.1 °F -2.9 °F 15% 30.30 in 10.0 mi SSW 8.1 mph - N/A   Clear
9:35 PM 40.3 °F 36.3 °F -3.3 °F 16% 30.30 in 10.0 mi SW 5.8 mph - N/A   Clear
9:55 PM 43.0 °F 39.5 °F -3.5 °F 14% 30.30 in 10.0 mi SSW 5.8 mph - N/A   Clear
10:15 PM 45.0 °F 41.8 °F -2.0 °F 14% 30.30 in 10.0 mi SSW 5.8 mph - N/A   Clear
10:35 PM 45.3 °F 42.3 °F -0.9 °F 15% 30.30 in 10.0 mi SSW 5.8 mph - N/A   Clear
10:55 PM 45.1 °F 42.8 °F -0.2 °F 15% 30.30 in 10.0 mi South 4.6 mph - N/A   Clear
11:15 PM 45.1 °F 42.8 °F 0.1 °F 15% 30.31 in 10.0 mi South 4.6 mph - N/A   Clear
11:35 PM 42.6 °F 39.9 °F 0.1 °F 17% 30.30 in 10.0 mi SSW 4.6 mph - N/A   Clear
11:55 PM 41.5 °F 36.4 °F -0.6 °F 17% 30.30 in 10.0 mi SSW 8.1 mph - N/A   Clear